AFL347 OIIE-UUBW

Flight info

Callsign AFL347
Flight time 3h 2m
Altitude 40000
Route PAXID N72 BAKUV N39 LASKA/K0900F400 N50 OLOPI OLOPI2W
Aircraft A359/H-SDE2E3GHIJ3J4J5LM1ORWXY/LB1D1

Departure

Time 2026-05-09 09:09
Airport Imam Khomeini International Airport (OIIE)

Arrival

Time 2026-05-09 12:12
Airport Zhukovsky International Airport (UUBW)
Time Latitude Longitude Altitude Speed Heading
2026-05-09 08:49 35.41011 51.15597 3276 ft 0 kts 193°
2026-05-09 09:00 35.41025 51.15602 3279 ft 4 kts 193°
2026-05-09 09:00 35.41051 51.15610 3272 ft 3 kts 193°
2026-05-09 09:00 35.41071 51.15615 3272 ft 3 kts 192°
2026-05-09 09:00 35.41090 51.15614 3275 ft 4 kts 122°
2026-05-09 09:01 35.41100 51.15587 3277 ft 4 kts 107°
2026-05-09 09:01 35.41107 51.15555 3273 ft 4 kts 107°
2026-05-09 09:01 35.41110 51.15544 3277 ft 0 kts 109°
2026-05-09 09:04 35.41106 51.15559 3273 ft 7 kts 107°
2026-05-09 09:04 35.41087 51.15632 3274 ft 10 kts 108°
2026-05-09 09:04 35.41065 51.15716 3276 ft 11 kts 108°
2026-05-09 09:04 35.41039 51.15810 3273 ft 12 kts 109°
2026-05-09 09:05 35.41008 51.15921 3272 ft 15 kts 109°
2026-05-09 09:05 35.40968 51.16054 3270 ft 18 kts 111°
2026-05-09 09:05 35.40923 51.16207 3268 ft 21 kts 108°
2026-05-09 09:05 35.40908 51.16385 3265 ft 22 kts 53°
2026-05-09 09:06 35.41044 51.16467 3264 ft 22 kts 19°
2026-05-09 09:06 35.41193 51.16529 3264 ft 20 kts 18°
2026-05-09 09:06 35.41209 51.16536 3265 ft 1 kts 19°
2026-05-09 09:06 35.41233 51.16546 3266 ft 5 kts 18°
2026-05-09 09:07 35.41258 51.16554 3263 ft 3 kts 14°
2026-05-09 09:07 35.41285 51.16556 3264 ft 8 kts 354°
2026-05-09 09:07 35.41328 51.16519 3267 ft 7 kts 308°
2026-05-09 09:07 35.41343 51.16484 3271 ft 0 kts 292°
2026-05-09 09:09 35.41400 51.16292 3269 ft 55 kts 288°
2026-05-09 09:09 35.41591 51.15605 3274 ft 114 kts 289°
2026-05-09 09:09 35.41904 51.14489 3293 ft 163 kts 289°
2026-05-09 09:09 35.42253 51.13132 3930 ft 161 kts 285°
2026-05-09 09:10 35.42377 51.11767 4472 ft 168 kts 277°
2026-05-09 09:10 35.42883 51.10415 4708 ft 187 kts 318°
2026-05-09 09:10 35.44123 51.09723 4969 ft 209 kts 341°
2026-05-09 09:10 35.45535 51.08990 5192 ft 234 kts 329°
2026-05-09 09:11 35.46910 51.07806 5653 ft 247 kts 319°
2026-05-09 09:11 35.48181 51.06354 6374 ft 253 kts 315°
2026-05-09 09:11 35.49416 51.04751 6894 ft 264 kts 311°
2026-05-09 09:11 35.50642 51.03042 7648 ft 267 kts 309°
2026-05-09 09:12 35.51856 51.01295 8526 ft 270 kts 308°
2026-05-09 09:12 35.53060 50.99526 9471 ft 271 kts 307°
2026-05-09 09:12 35.54267 50.97732 10304 ft 277 kts 306°
2026-05-09 09:12 35.55528 50.95837 10707 ft 297 kts 306°
2026-05-09 09:13 35.56874 50.93814 11066 ft 317 kts 306°
2026-05-09 09:13 35.58310 50.91654 11628 ft 328 kts 306°
2026-05-09 09:13 35.59770 50.89461 12313 ft 335 kts 306°
2026-05-09 09:13 35.61223 50.87276 13052 ft 340 kts 306°
2026-05-09 09:14 35.62723 50.85023 13901 ft 341 kts 305°
2026-05-09 09:14 35.64236 50.82744 14603 ft 346 kts 305°
2026-05-09 09:14 35.65805 50.80459 15268 ft 352 kts 308°
2026-05-09 09:14 35.67547 50.78303 15929 ft 360 kts 313°
2026-05-09 09:15 35.69519 50.76331 16603 ft 369 kts 319°
2026-05-09 09:15 35.71676 50.74608 17267 ft 377 kts 324°
2026-05-09 09:15 35.73978 50.72958 17953 ft 382 kts 325°
2026-05-09 09:15 35.76269 50.71337 18558 ft 387 kts 324°
2026-05-09 09:16 35.78633 50.69659 19207 ft 390 kts 324°
2026-05-09 09:16 35.83365 50.66291 20603 ft 395 kts 324°
2026-05-09 09:16 35.85755 50.64584 21227 ft 400 kts 324°
2026-05-09 09:17 35.88170 50.62859 21933 ft 401 kts 324°
2026-05-09 09:17 35.90595 50.61127 22623 ft 404 kts 324°
2026-05-09 09:17 35.93036 50.59381 23265 ft 408 kts 323°
2026-05-09 09:17 35.95493 50.57621 23872 ft 411 kts 323°
2026-05-09 09:18 35.97970 50.55846 24388 ft 415 kts 323°
2026-05-09 09:18 36.00483 50.54044 24924 ft 418 kts 323°
2026-05-09 09:18 36.03006 50.52234 25462 ft 421 kts 323°
2026-05-09 09:18 36.05546 50.50412 25992 ft 424 kts 323°
2026-05-09 09:19 36.08106 50.48571 26538 ft 427 kts 323°
2026-05-09 09:19 36.10687 50.46714 27055 ft 431 kts 323°
2026-05-09 09:19 36.13266 50.44856 27587 ft 434 kts 323°
2026-05-09 09:19 36.15907 50.42953 28085 ft 438 kts 323°
2026-05-09 09:20 36.18547 50.41049 28592 ft 441 kts 323°
2026-05-09 09:20 36.21202 50.39134 29144 ft 443 kts 323°
2026-05-09 09:20 36.23877 50.37203 29640 ft 446 kts 323°
2026-05-09 09:20 36.26658 50.35437 30076 ft 456 kts 331°
2026-05-09 09:21 36.29726 50.34216 30475 ft 469 kts 341°
2026-05-09 09:21 36.32992 50.33686 30832 ft 479 kts 350°
2026-05-09 09:21 36.36328 50.33454 31201 ft 483 kts 352°
2026-05-09 09:21 36.39696 50.33315 31546 ft 487 kts 353°
2026-05-09 09:22 36.43115 50.33213 31843 ft 490 kts 353°
2026-05-09 09:22 36.46525 50.33116 32246 ft 492 kts 353°
2026-05-09 09:22 36.49963 50.33006 32578 ft 495 kts 353°
2026-05-09 09:22 36.53401 50.32882 32894 ft 498 kts 352°
2026-05-09 09:23 36.56895 50.32747 33268 ft 500 kts 352°
2026-05-09 09:23 36.60379 50.32606 33613 ft 503 kts 352°
2026-05-09 09:23 36.63883 50.32462 33924 ft 505 kts 352°
2026-05-09 09:23 36.67405 50.32319 34244 ft 507 kts 352°
2026-05-09 09:24 36.70935 50.32174 34504 ft 509 kts 352°
2026-05-09 09:24 36.74481 50.32027 34659 ft 512 kts 353°
2026-05-09 09:24 36.78052 50.31879 34903 ft 512 kts 352°
2026-05-09 09:24 36.81558 50.31734 35242 ft 512 kts 352°
2026-05-09 09:25 36.85177 50.31584 35594 ft 512 kts 352°
2026-05-09 09:25 36.88736 50.31436 35885 ft 513 kts 352°
2026-05-09 09:25 36.92309 50.31286 36161 ft 513 kts 353°
2026-05-09 09:25 36.95854 50.31138 36442 ft 513 kts 353°
2026-05-09 09:26 36.99442 50.30991 36711 ft 514 kts 353°
2026-05-09 09:26 37.03018 50.30844 37001 ft 515 kts 353°
2026-05-09 09:26 37.06580 50.30698 37246 ft 515 kts 353°
2026-05-09 09:26 37.10164 50.30520 37505 ft 515 kts 352°
2026-05-09 09:27 37.13769 50.30299 37726 ft 515 kts 351°
2026-05-09 09:27 37.17325 50.30064 37965 ft 515 kts 351°
2026-05-09 09:27 37.20928 50.29824 38224 ft 515 kts 352°
2026-05-09 09:27 37.24513 50.29590 38428 ft 516 kts 352°
2026-05-09 09:28 37.28102 50.29361 38659 ft 517 kts 352°
2026-05-09 09:28 37.31691 50.29140 38879 ft 516 kts 352°
2026-05-09 09:28 37.35285 50.28919 39044 ft 517 kts 352°
2026-05-09 09:28 37.38876 50.28698 39213 ft 517 kts 352°
2026-05-09 09:29 37.42468 50.28476 39366 ft 517 kts 352°
2026-05-09 09:29 37.46014 50.28257 39509 ft 518 kts 352°
2026-05-09 09:29 37.49618 50.28035 39668 ft 518 kts 352°
2026-05-09 09:29 37.53214 50.27814 39821 ft 518 kts 352°
2026-05-09 09:30 37.56817 50.27592 39995 ft 518 kts 352°
2026-05-09 09:30 37.60411 50.27371 40134 ft 518 kts 352°
2026-05-09 09:30 37.67619 50.26925 40169 ft 519 kts 352°
2026-05-09 09:31 37.74833 50.26478 40168 ft 519 kts 352°
2026-05-09 09:32 37.85656 50.25806 40171 ft 519 kts 352°
2026-05-09 09:32 37.92882 50.25356 40179 ft 519 kts 352°
2026-05-09 09:33 38.00096 50.24908 40171 ft 519 kts 352°
2026-05-09 09:33 38.07322 50.24456 40167 ft 520 kts 352°
2026-05-09 09:34 38.14540 50.24004 40173 ft 519 kts 352°
2026-05-09 09:34 38.21763 50.23562 40165 ft 520 kts 352°
2026-05-09 09:36 38.50605 50.21802 40161 ft 519 kts 353°
2026-05-09 09:37 38.57802 50.21362 40164 ft 517 kts 353°
2026-05-09 09:37 38.64990 50.20921 40162 ft 517 kts 353°
2026-05-09 09:38 38.72170 50.20478 40160 ft 516 kts 353°
2026-05-09 09:38 38.79342 50.20036 40162 ft 516 kts 353°
2026-05-09 09:39 38.86514 50.19589 40171 ft 516 kts 353°
2026-05-09 09:39 38.93679 50.19146 40158 ft 515 kts 353°
2026-05-09 09:40 39.00846 50.18704 40159 ft 516 kts 353°
2026-05-09 09:40 39.08021 50.18258 40161 ft 516 kts 353°
2026-05-09 09:41 39.15191 50.17812 40148 ft 515 kts 353°
2026-05-09 09:41 39.22360 50.17365 40154 ft 517 kts 353°
2026-05-09 09:42 39.29551 50.16915 40153 ft 516 kts 353°
2026-05-09 09:42 39.36710 50.16467 40151 ft 515 kts 353°
2026-05-09 09:43 39.43873 50.16017 40153 ft 515 kts 353°
2026-05-09 09:43 39.51035 50.15566 40148 ft 515 kts 353°
2026-05-09 09:44 39.58185 50.15111 40148 ft 514 kts 353°
2026-05-09 09:44 39.65334 50.14659 40143 ft 514 kts 353°
2026-05-09 09:45 39.72486 50.14210 40149 ft 515 kts 353°
2026-05-09 09:45 39.79654 50.13754 40146 ft 516 kts 353°
2026-05-09 09:46 39.86805 50.13097 40147 ft 514 kts 351°
2026-05-09 09:46 39.93849 50.12106 40144 ft 512 kts 349°
2026-05-09 09:47 40.00939 50.11106 40140 ft 513 kts 350°
2026-05-09 09:47 40.08044 50.10164 40141 ft 513 kts 351°
2026-05-09 09:48 40.15139 50.09249 40135 ft 512 kts 351°
2026-05-09 09:48 40.22230 50.08336 40133 ft 513 kts 351°
2026-05-09 09:49 40.29326 50.07418 40132 ft 512 kts 351°
2026-05-09 09:49 40.36412 50.06501 40130 ft 511 kts 351°
2026-05-09 09:50 40.43489 50.05578 40144 ft 511 kts 351°
2026-05-09 09:50 40.50557 50.04717 40132 ft 510 kts 353°
2026-05-09 09:51 40.57655 50.04320 40133 ft 511 kts 355°
2026-05-09 09:51 40.63611 50.04076 40144 ft 511 kts 355°
2026-05-09 09:52 40.70699 50.03729 40121 ft 508 kts 354°
2026-05-09 09:52 40.77766 50.03334 40137 ft 509 kts 354°
2026-05-09 09:53 40.84853 50.02919 40161 ft 510 kts 354°
2026-05-09 09:53 40.91919 50.02506 40145 ft 507 kts 354°
2026-05-09 09:54 40.98918 50.02099 40149 ft 506 kts 354°
2026-05-09 09:54 41.05960 50.01686 40159 ft 507 kts 354°
2026-05-09 09:55 41.12972 50.01131 40149 ft 503 kts 348°
2026-05-09 09:55 41.19755 49.99128 40146 ft 499 kts 342°
2026-05-09 09:56 41.26459 49.96739 40147 ft 498 kts 341°
2026-05-09 09:56 41.33143 49.94285 40140 ft 498 kts 341°
2026-05-09 09:57 41.39825 49.91835 40140 ft 498 kts 341°
2026-05-09 09:57 41.46505 49.89394 40143 ft 497 kts 341°
2026-05-09 09:58 41.53167 49.86963 40141 ft 496 kts 341°
2026-05-09 09:58 41.59814 49.84533 40138 ft 495 kts 341°
2026-05-09 09:59 41.66469 49.82090 40137 ft 497 kts 341°
2026-05-09 09:59 41.73148 49.79635 40137 ft 497 kts 341°
2026-05-09 10:00 41.79817 49.77181 40132 ft 497 kts 341°
2026-05-09 10:00 41.86489 49.74720 40133 ft 496 kts 341°
2026-05-09 10:01 41.93118 49.72268 40131 ft 495 kts 341°
2026-05-09 10:01 41.99770 49.69801 40127 ft 495 kts 341°
2026-05-09 10:02 42.06376 49.67347 40124 ft 495 kts 342°
2026-05-09 10:02 42.13020 49.64874 40121 ft 495 kts 341°
2026-05-09 10:03 42.19709 49.62377 40121 ft 495 kts 342°
2026-05-09 10:03 42.26303 49.59912 40120 ft 495 kts 342°
2026-05-09 10:04 42.32942 49.57425 40116 ft 495 kts 342°
2026-05-09 10:04 42.39456 49.54503 40119 ft 491 kts 332°
2026-05-09 10:05 42.45586 49.50440 40116 ft 490 kts 330°
2026-05-09 10:05 42.51633 49.46197 40113 ft 489 kts 330°
2026-05-09 10:06 42.57671 49.41917 40117 ft 490 kts 330°
2026-05-09 10:06 42.63706 49.37648 40110 ft 488 kts 330°
2026-05-09 10:07 42.69725 49.33393 40111 ft 488 kts 330°
2026-05-09 10:07 42.75750 49.29130 40116 ft 488 kts 330°
2026-05-09 10:08 42.81775 49.24858 40105 ft 488 kts 330°
2026-05-09 10:08 42.87785 49.20585 40099 ft 487 kts 330°
2026-05-09 10:09 42.93790 49.16308 40106 ft 487 kts 330°
2026-05-09 10:09 42.99799 49.12019 40102 ft 486 kts 330°
2026-05-09 10:10 43.05796 49.07728 40098 ft 486 kts 330°
2026-05-09 10:10 43.11776 49.03439 40105 ft 486 kts 330°
2026-05-09 10:11 43.17765 48.99133 40095 ft 485 kts 330°
2026-05-09 10:11 43.23742 48.94827 40095 ft 486 kts 330°
2026-05-09 10:12 43.29718 48.90511 40084 ft 485 kts 330°
2026-05-09 10:12 43.35686 48.86194 40081 ft 484 kts 330°
2026-05-09 10:13 43.41644 48.81874 40080 ft 484 kts 330°
2026-05-09 10:13 43.47595 48.77549 40087 ft 484 kts 330°
2026-05-09 10:14 43.53544 48.73215 40077 ft 484 kts 330°
2026-05-09 10:14 43.59493 48.68871 40091 ft 484 kts 330°
2026-05-09 10:15 43.65438 48.64518 40074 ft 484 kts 330°
2026-05-09 10:15 43.71385 48.60160 40086 ft 484 kts 330°
2026-05-09 10:16 43.77330 48.55790 40075 ft 483 kts 330°
2026-05-09 10:16 43.83259 48.51420 40073 ft 483 kts 330°
2026-05-09 10:17 43.89186 48.47043 40079 ft 483 kts 330°
2026-05-09 10:17 43.95112 48.42660 40071 ft 483 kts 330°
2026-05-09 10:18 44.01007 48.38287 40077 ft 483 kts 330°
2026-05-09 10:18 44.06926 48.33887 40072 ft 483 kts 330°
2026-05-09 10:19 44.12836 48.29482 40067 ft 483 kts 330°
2026-05-09 10:19 44.18763 48.25058 40069 ft 482 kts 330°
2026-05-09 10:20 44.24683 48.20624 40072 ft 483 kts 330°
2026-05-09 10:20 44.30600 48.16183 40065 ft 483 kts 330°
2026-05-09 10:21 44.36513 48.11740 40060 ft 483 kts 330°
2026-05-09 10:21 44.42566 48.07636 40064 ft 483 kts 334°
2026-05-09 10:22 44.48684 48.03765 40061 ft 483 kts 334°
2026-05-09 10:22 44.54799 47.99838 40060 ft 483 kts 333°
2026-05-09 10:23 44.60891 47.95839 40060 ft 483 kts 333°
2026-05-09 10:23 44.66970 47.91805 40055 ft 483 kts 333°
2026-05-09 10:24 44.73040 47.87768 40055 ft 482 kts 333°
2026-05-09 10:24 44.79107 47.83730 40054 ft 482 kts 333°
2026-05-09 10:25 44.85167 47.79688 40055 ft 481 kts 333°
2026-05-09 10:25 44.91215 47.75647 40052 ft 481 kts 333°
2026-05-09 10:26 44.97263 47.71597 40046 ft 481 kts 333°
2026-05-09 10:26 45.03296 47.67543 40047 ft 480 kts 333°
2026-05-09 10:27 45.09332 47.63479 40046 ft 480 kts 333°
2026-05-09 10:27 45.15360 47.59412 40044 ft 480 kts 333°
2026-05-09 10:28 45.21390 47.55333 40043 ft 480 kts 333°
2026-05-09 10:28 45.27369 47.51279 40042 ft 479 kts 333°
2026-05-09 10:29 45.33373 47.47201 40041 ft 479 kts 333°
2026-05-09 10:29 45.39388 47.43106 40043 ft 479 kts 333°
2026-05-09 10:30 45.45404 47.39000 40039 ft 480 kts 333°
2026-05-09 10:30 45.51431 47.34876 40041 ft 481 kts 333°
2026-05-09 10:31 45.57457 47.30745 40040 ft 481 kts 333°
2026-05-09 10:31 45.63481 47.26602 40034 ft 481 kts 333°
2026-05-09 10:32 45.69492 47.22446 40037 ft 480 kts 333°
2026-05-09 10:32 45.75476 47.18233 40037 ft 479 kts 332°
2026-05-09 10:33 45.81462 47.14000 40032 ft 479 kts 332°
2026-05-09 10:33 45.87436 47.09779 40031 ft 478 kts 333°
2026-05-09 10:34 45.93407 47.05555 40032 ft 479 kts 333°
2026-05-09 10:34 46.02242 46.98804 40025 ft 479 kts 330°
2026-05-09 10:35 46.08076 46.94189 40029 ft 479 kts 330°
2026-05-09 10:35 46.13932 46.89599 40029 ft 479 kts 330°
2026-05-09 10:36 46.19784 46.85035 40025 ft 478 kts 330°
2026-05-09 10:36 46.25744 46.80738 40024 ft 478 kts 334°
2026-05-09 10:37 46.30775 46.77444 40025 ft 478 kts 334°
2026-05-09 10:37 46.36832 46.73461 40026 ft 478 kts 334°
2026-05-09 10:38 46.42905 46.69374 40021 ft 477 kts 334°
2026-05-09 10:38 46.48874 46.65309 40028 ft 477 kts 333°
2026-05-09 10:39 46.54878 46.61205 40026 ft 477 kts 333°
2026-05-09 10:39 46.60892 46.57087 40025 ft 478 kts 334°
2026-05-09 10:40 46.66903 46.52963 40027 ft 477 kts 333°
2026-05-09 10:40 46.72903 46.48837 40028 ft 477 kts 334°
2026-05-09 10:41 46.78897 46.44707 40024 ft 477 kts 333°
2026-05-09 10:41 46.84892 46.40564 40030 ft 475 kts 333°
2026-05-09 10:42 46.90871 46.36421 40026 ft 476 kts 333°
2026-05-09 10:42 46.96855 46.32264 40023 ft 476 kts 333°
2026-05-09 10:43 47.02846 46.28091 40029 ft 476 kts 333°
2026-05-09 10:43 47.08826 46.23918 40029 ft 476 kts 333°
2026-05-09 10:44 47.14805 46.19722 40026 ft 476 kts 333°
2026-05-09 10:44 47.20772 46.15525 40026 ft 476 kts 333°
2026-05-09 10:46 47.35685 46.05003 40024 ft 474 kts 333°
2026-05-09 10:46 47.41642 46.00787 40028 ft 475 kts 333°
2026-05-09 10:47 47.47601 45.96568 40029 ft 475 kts 333°
2026-05-09 10:47 47.53518 45.92369 40028 ft 475 kts 333°
2026-05-09 10:48 47.59469 45.88133 40032 ft 475 kts 333°
2026-05-09 10:48 47.65424 45.83887 40031 ft 475 kts 333°
2026-05-09 10:49 47.71374 45.79636 40034 ft 474 kts 333°
2026-05-09 10:49 47.77305 45.75384 40041 ft 473 kts 333°
2026-05-09 10:50 47.83234 45.71120 40037 ft 473 kts 333°
2026-05-09 10:50 47.89159 45.66849 40044 ft 474 kts 333°
2026-05-09 10:51 47.95095 45.62559 40045 ft 473 kts 333°
2026-05-09 10:51 48.01024 45.58265 40045 ft 474 kts 333°
2026-05-09 10:52 48.06951 45.53963 40045 ft 474 kts 333°
2026-05-09 10:52 48.12881 45.49648 40051 ft 474 kts 333°
2026-05-09 10:53 48.18801 45.45331 40049 ft 474 kts 333°
2026-05-09 10:53 48.24727 45.40993 40060 ft 474 kts 333°
2026-05-09 10:54 48.30639 45.36652 40057 ft 473 kts 333°
2026-05-09 10:54 48.36548 45.32306 40057 ft 473 kts 333°
2026-05-09 10:55 48.42184 45.27217 40065 ft 472 kts 323°
2026-05-09 10:55 48.47435 45.21263 40065 ft 473 kts 321°
2026-05-09 10:56 48.52627 45.15166 40065 ft 473 kts 321°
2026-05-09 10:56 48.57766 45.09104 40068 ft 473 kts 321°
2026-05-09 10:57 48.62950 45.02994 40069 ft 472 kts 321°
2026-05-09 10:57 48.68129 44.96882 40072 ft 472 kts 321°
2026-05-09 10:58 48.73311 44.90758 40074 ft 472 kts 321°
2026-05-09 10:58 48.78479 44.84635 40078 ft 471 kts 321°
2026-05-09 10:59 48.83555 44.78605 40081 ft 471 kts 321°
2026-05-09 10:59 48.88660 44.72378 40079 ft 471 kts 320°
2026-05-09 11:00 48.93695 44.66015 40078 ft 471 kts 319°
2026-05-09 11:00 48.98733 44.59646 40084 ft 470 kts 319°
2026-05-09 11:01 49.03772 44.53300 40085 ft 470 kts 319°
2026-05-09 11:01 49.08812 44.46949 40080 ft 470 kts 319°
2026-05-09 11:02 49.13848 44.40592 40085 ft 469 kts 319°
2026-05-09 11:02 49.18867 44.34229 40090 ft 469 kts 319°
2026-05-09 11:03 49.23883 44.27853 40085 ft 468 kts 319°
2026-05-09 11:03 49.28888 44.21473 40087 ft 469 kts 319°
2026-05-09 11:04 49.33893 44.15079 40089 ft 467 kts 319°
2026-05-09 11:04 49.38864 44.08705 40084 ft 466 kts 319°
2026-05-09 11:05 49.43847 44.02306 40084 ft 466 kts 319°
2026-05-09 11:05 49.48815 43.95909 40085 ft 466 kts 319°
2026-05-09 11:06 49.53786 43.89499 40080 ft 466 kts 319°
2026-05-09 11:06 49.58758 43.83089 40081 ft 466 kts 319°
2026-05-09 11:07 49.63721 43.76671 40087 ft 466 kts 319°
2026-05-09 11:07 49.68685 43.70232 40079 ft 466 kts 319°
2026-05-09 11:08 49.73608 43.63833 40078 ft 465 kts 319°
2026-05-09 11:08 49.78547 43.57393 40078 ft 464 kts 319°
2026-05-09 11:09 49.83488 43.50932 40076 ft 465 kts 319°
2026-05-09 11:09 49.88418 43.44466 40075 ft 464 kts 318°
2026-05-09 11:10 49.93340 43.37995 40068 ft 463 kts 318°
2026-05-09 11:10 49.98243 43.31532 40060 ft 462 kts 318°
2026-05-09 11:11 50.03139 43.25059 40056 ft 462 kts 318°
2026-05-09 11:11 50.08036 43.18566 40052 ft 462 kts 318°
2026-05-09 11:12 50.12922 43.12070 40051 ft 462 kts 318°
2026-05-09 11:12 50.17804 43.05562 40045 ft 462 kts 318°
2026-05-09 11:13 50.22685 42.99036 40042 ft 462 kts 318°
2026-05-09 11:13 50.27557 42.92505 40043 ft 462 kts 317°
2026-05-09 11:14 50.32423 42.85963 40037 ft 461 kts 317°
2026-05-09 11:14 50.37272 42.79428 40033 ft 460 kts 317°
2026-05-09 11:15 50.42131 42.72862 40036 ft 461 kts 317°
2026-05-09 11:15 50.46978 42.66290 40038 ft 460 kts 317°
2026-05-09 11:16 50.51812 42.59720 40031 ft 459 kts 317°
2026-05-09 11:16 50.56945 42.53703 40030 ft 461 kts 323°
2026-05-09 11:17 50.62237 42.47990 40029 ft 461 kts 323°
2026-05-09 11:17 50.67544 42.42321 40032 ft 461 kts 323°
2026-05-09 11:18 50.72854 42.36631 40027 ft 461 kts 323°
2026-05-09 11:18 50.78117 42.30960 40030 ft 461 kts 323°
2026-05-09 11:19 50.83411 42.25236 40036 ft 461 kts 323°
2026-05-09 11:19 50.88703 42.19503 40039 ft 461 kts 323°
2026-05-09 11:20 50.93995 42.13750 40033 ft 461 kts 323°
2026-05-09 11:20 50.99288 42.07978 40038 ft 461 kts 323°
2026-05-09 11:21 51.04575 42.02197 40039 ft 461 kts 323°
2026-05-09 11:21 51.09855 41.96410 40050 ft 461 kts 323°
2026-05-09 11:22 51.15141 41.90599 40047 ft 461 kts 323°
2026-05-09 11:22 51.20423 41.84774 40048 ft 461 kts 323°
2026-05-09 11:23 51.25691 41.78947 40032 ft 461 kts 323°
2026-05-09 11:23 51.30964 41.73102 40048 ft 461 kts 322°
2026-05-09 11:24 51.36234 41.67244 40060 ft 460 kts 322°
2026-05-09 11:24 51.41140 41.61772 40061 ft 460 kts 322°
2026-05-09 11:25 51.46394 41.55901 40046 ft 460 kts 322°
2026-05-09 11:25 51.51646 41.50011 40046 ft 460 kts 322°
2026-05-09 11:26 51.56889 41.44115 40050 ft 460 kts 322°
2026-05-09 11:26 51.61249 41.39199 40051 ft 460 kts 322°
2026-05-09 11:27 51.66488 41.33274 40056 ft 460 kts 322°
2026-05-09 11:27 51.71730 41.27344 40070 ft 460 kts 322°
2026-05-09 11:28 51.76969 41.21387 40065 ft 461 kts 322°
2026-05-09 11:28 51.82205 41.15415 40062 ft 461 kts 322°
2026-05-09 11:29 51.87445 41.09424 40070 ft 461 kts 322°
2026-05-09 11:29 51.92678 41.03424 40076 ft 461 kts 322°
2026-05-09 11:30 51.97905 40.97421 40081 ft 461 kts 321°
2026-05-09 11:30 52.03134 40.91404 40079 ft 461 kts 322°
2026-05-09 11:31 52.08654 40.86018 40084 ft 463 kts 327°
2026-05-09 11:31 52.14263 40.80835 40085 ft 463 kts 327°
2026-05-09 11:32 52.19874 40.75686 40094 ft 463 kts 327°
2026-05-09 11:32 52.25486 40.70514 40089 ft 463 kts 327°
2026-05-09 11:33 52.31092 40.65318 40095 ft 465 kts 327°
2026-05-09 11:33 52.39527 40.57474 40101 ft 465 kts 327°
2026-05-09 11:34 52.45141 40.52221 40111 ft 465 kts 327°
2026-05-09 11:34 52.50770 40.46944 40107 ft 466 kts 327°
2026-05-09 11:35 52.56378 40.41713 40109 ft 466 kts 327°
2026-05-09 11:35 52.62010 40.36449 40113 ft 466 kts 327°
2026-05-09 11:36 52.67651 40.31156 40127 ft 466 kts 327°
2026-05-09 11:36 52.73283 40.25850 40119 ft 467 kts 327°
2026-05-09 11:37 52.78924 40.20521 40134 ft 467 kts 327°
2026-05-09 11:37 52.84564 40.15181 40124 ft 467 kts 327°
2026-05-09 11:38 52.90200 40.09835 40137 ft 467 kts 327°
2026-05-09 11:38 52.95836 40.04469 40137 ft 467 kts 327°
2026-05-09 11:39 53.01466 39.99086 40142 ft 467 kts 327°
2026-05-09 11:40 53.09917 39.90981 40154 ft 467 kts 327°
2026-05-09 11:40 53.15543 39.85563 40155 ft 467 kts 327°
2026-05-09 11:41 53.21166 39.80133 40156 ft 467 kts 327°
2026-05-09 11:41 53.23974 39.77415 39945 ft 466 kts 327°
2026-05-09 11:41 53.26763 39.74715 39482 ft 463 kts 327°
2026-05-09 11:41 53.29542 39.72017 38892 ft 463 kts 326°
2026-05-09 11:42 53.32344 39.69290 38164 ft 465 kts 326°
2026-05-09 11:42 53.35121 39.66585 37482 ft 463 kts 326°
2026-05-09 11:42 53.37901 39.63871 36815 ft 463 kts 326°
2026-05-09 11:42 53.40690 39.61146 36151 ft 462 kts 326°
2026-05-09 11:43 53.43487 39.58469 35486 ft 464 kts 328°
2026-05-09 11:43 53.46356 39.55971 34937 ft 464 kts 330°
2026-05-09 11:43 53.49251 39.53582 34375 ft 462 kts 330°
2026-05-09 11:43 53.52120 39.51245 33804 ft 460 kts 330°
2026-05-09 11:44 53.54942 39.48932 33252 ft 456 kts 330°
2026-05-09 11:44 53.57789 39.46570 32732 ft 452 kts 329°
2026-05-09 11:44 53.60587 39.44218 32186 ft 448 kts 329°
2026-05-09 11:44 53.63351 39.41877 31658 ft 445 kts 329°
2026-05-09 11:45 53.66108 39.39527 31126 ft 442 kts 328°
2026-05-09 11:45 53.68839 39.37191 30628 ft 439 kts 328°
2026-05-09 11:45 53.71559 39.34860 30076 ft 437 kts 328°
2026-05-09 11:45 53.74252 39.32545 29530 ft 432 kts 328°
2026-05-09 11:46 53.76931 39.30243 29020 ft 428 kts 328°
2026-05-09 11:46 53.79576 39.27966 28519 ft 424 kts 328°
2026-05-09 11:46 53.82188 39.25710 28021 ft 420 kts 328°
2026-05-09 11:46 53.84763 39.23487 27510 ft 415 kts 328°
2026-05-09 11:47 53.87330 39.21269 26996 ft 411 kts 328°
2026-05-09 11:47 53.89879 39.19072 26530 ft 407 kts 328°
2026-05-09 11:47 53.92387 39.16901 26033 ft 405 kts 328°
2026-05-09 11:47 53.94886 39.14730 25540 ft 402 kts 328°
2026-05-09 11:48 53.97374 39.12569 25031 ft 401 kts 328°
2026-05-09 11:48 53.99851 39.10414 24539 ft 399 kts 328°
2026-05-09 11:48 54.02311 39.08266 24036 ft 397 kts 328°
2026-05-09 11:48 54.04760 39.06125 23493 ft 395 kts 328°
2026-05-09 11:49 54.07189 39.04001 22959 ft 391 kts 328°
2026-05-09 11:49 54.09594 39.01898 22460 ft 387 kts 328°
2026-05-09 11:49 54.11966 38.99819 21959 ft 383 kts 328°
2026-05-09 11:49 54.14336 38.97740 21453 ft 380 kts 328°
2026-05-09 11:50 54.16650 38.95709 21225 ft 369 kts 328°
2026-05-09 11:50 54.18902 38.93734 21054 ft 357 kts 328°
2026-05-09 11:50 54.21096 38.91803 20618 ft 355 kts 328°
2026-05-09 11:50 54.23285 38.89873 20181 ft 354 kts 328°
2026-05-09 11:51 54.25475 38.87988 19849 ft 351 kts 329°
2026-05-09 11:51 54.27659 38.86126 19513 ft 351 kts 329°
2026-05-09 11:51 54.29834 38.84265 19186 ft 351 kts 329°
2026-05-09 11:51 54.32009 38.82432 18852 ft 348 kts 330°
2026-05-09 11:52 54.34176 38.80592 18518 ft 346 kts 329°
2026-05-09 11:52 54.36321 38.78759 18159 ft 343 kts 329°
2026-05-09 11:52 54.38452 38.76939 17833 ft 342 kts 329°
2026-05-09 11:52 54.40568 38.75127 17494 ft 339 kts 329°
2026-05-09 11:53 54.42675 38.73321 17182 ft 337 kts 329°
2026-05-09 11:53 54.44763 38.71530 16847 ft 336 kts 329°
2026-05-09 11:53 54.46852 38.69729 16540 ft 335 kts 329°
2026-05-09 11:53 54.48922 38.67948 16219 ft 333 kts 329°
2026-05-09 11:54 54.50986 38.66178 15962 ft 331 kts 329°
2026-05-09 11:54 54.53032 38.64409 15716 ft 328 kts 329°
2026-05-09 11:54 54.55041 38.62659 15471 ft 327 kts 329°
2026-05-09 11:54 54.57064 38.60894 15218 ft 326 kts 329°
2026-05-09 11:55 54.59094 38.59137 14970 ft 325 kts 330°
2026-05-09 11:56 54.69089 38.50474 13709 ft 318 kts 329°
2026-05-09 11:56 54.71061 38.48753 13461 ft 317 kts 330°
2026-05-09 11:56 54.73030 38.47037 13244 ft 317 kts 330°
2026-05-09 11:57 54.75006 38.45323 12974 ft 317 kts 330°
2026-05-09 11:57 54.76978 38.43614 12721 ft 317 kts 330°
2026-05-09 11:57 54.78949 38.41899 12469 ft 317 kts 330°
2026-05-09 11:57 54.80916 38.40204 12209 ft 316 kts 330°
2026-05-09 11:58 54.82910 38.38566 11945 ft 315 kts 335°
2026-05-09 11:58 54.85057 38.37768 11703 ft 320 kts 356°
2026-05-09 11:58 54.87251 38.38482 11459 ft 326 kts 20°
2026-05-09 11:58 54.89295 38.40159 11169 ft 326 kts 25°
2026-05-09 11:59 54.91316 38.41986 10918 ft 326 kts 26°
2026-05-09 11:59 54.93298 38.43770 10788 ft 315 kts 25°
2026-05-09 11:59 54.95217 38.45486 10560 ft 306 kts 25°
2026-05-09 11:59 54.97084 38.47152 10336 ft 300 kts 26°
2026-05-09 12:00 54.98942 38.48814 9956 ft 298 kts 26°
2026-05-09 12:00 55.00791 38.50463 9686 ft 299 kts 26°
2026-05-09 12:00 55.02640 38.52104 9433 ft 298 kts 26°
2026-05-09 12:00 55.04451 38.53719 9203 ft 296 kts 26°
2026-05-09 12:01 55.06287 38.55348 8979 ft 289 kts 26°
2026-05-09 12:01 55.08049 38.56917 8732 ft 286 kts 26°
2026-05-09 12:01 55.09768 38.58610 8503 ft 285 kts 35°
2026-05-09 12:01 55.11296 38.60782 8284 ft 282 kts 41°
2026-05-09 12:02 55.12738 38.63045 8125 ft 273 kts 42°
2026-05-09 12:02 55.14123 38.65225 7934 ft 264 kts 42°
2026-05-09 12:02 55.15465 38.67336 7696 ft 257 kts 42°
2026-05-09 12:02 55.16783 38.69397 7482 ft 251 kts 42°
2026-05-09 12:03 55.18075 38.71415 7244 ft 247 kts 42°
2026-05-09 12:03 55.19353 38.73420 7041 ft 245 kts 43°
2026-05-09 12:03 55.20664 38.75320 6855 ft 245 kts 35°
2026-05-09 12:03 55.22226 38.76358 6645 ft 246 kts
2026-05-09 12:04 55.23931 38.75922 6446 ft 251 kts 339°
2026-05-09 12:04 55.25337 38.74102 6245 ft 256 kts 316°
2026-05-09 12:04 55.26537 38.71776 6028 ft 258 kts 313°
2026-05-09 12:04 55.27718 38.69408 5814 ft 258 kts 313°
2026-05-09 12:05 55.28907 38.67045 5615 ft 258 kts 313°
2026-05-09 12:05 55.30105 38.64683 5416 ft 258 kts 314°
2026-05-09 12:05 55.31298 38.62339 5189 ft 258 kts 314°
2026-05-09 12:05 55.32497 38.59998 5004 ft 258 kts 314°
2026-05-09 12:06 55.33702 38.57647 4677 ft 258 kts 314°
2026-05-09 12:06 55.34901 38.55293 4352 ft 257 kts 314°
2026-05-09 12:06 55.36077 38.52978 4098 ft 251 kts 314°
2026-05-09 12:06 55.37232 38.50699 3915 ft 249 kts 315°
2026-05-09 12:07 55.38389 38.48422 3709 ft 248 kts 315°
2026-05-09 12:07 55.39531 38.46177 3505 ft 245 kts 315°
2026-05-09 12:07 55.40638 38.43992 3351 ft 235 kts 315°
2026-05-09 12:07 55.41714 38.41875 3184 ft 230 kts 315°
2026-05-09 12:08 55.42771 38.39789 3001 ft 227 kts 315°
2026-05-09 12:08 55.43798 38.37751 2950 ft 218 kts 316°
2026-05-09 12:08 55.44760 38.35842 2907 ft 199 kts 316°
2026-05-09 12:08 55.45634 38.34103 2815 ft 180 kts 316°
2026-05-09 12:09 55.46433 38.32524 2581 ft 166 kts 316°
2026-05-09 12:09 55.47182 38.31057 2377 ft 156 kts 317°
2026-05-09 12:09 55.47878 38.29679 2151 ft 146 kts 316°
2026-05-09 12:10 55.49843 38.25787 1574 ft 141 kts 317°
2026-05-09 12:10 55.50496 38.24492 1374 ft 141 kts 318°
2026-05-09 12:10 55.51143 38.23209 1179 ft 141 kts 317°
2026-05-09 12:11 55.51798 38.21909 998 ft 142 kts 317°
2026-05-09 12:11 55.52467 38.20610 784 ft 142 kts 314°
2026-05-09 12:11 55.53101 38.19328 591 ft 138 kts 314°
2026-05-09 12:11 55.53717 38.18067 407 ft 135 kts 315°
2026-05-09 12:12 55.54284 38.16963 401 ft 93 kts 311°
2026-05-09 12:12 55.54549 38.16442 401 ft 42 kts 311°
2026-05-09 12:12 55.54741 38.16057 395 ft 43 kts 311°
2026-05-09 12:12 55.54944 38.15654 405 ft 45 kts 312°
2026-05-09 12:13 55.55157 38.15233 397 ft 47 kts 311°
2026-05-09 12:13 55.55305 38.14942 404 ft 48 kts 312°
2026-05-09 12:13 55.55529 38.14493 401 ft 50 kts 311°
2026-05-09 12:13 55.55840 38.13878 406 ft 51 kts 312°
2026-05-09 12:14 55.56080 38.13401 399 ft 52 kts 311°
2026-05-09 12:14 55.56202 38.13156 401 ft 16 kts 307°
2026-05-09 12:14 55.56215 38.12987 403 ft 22 kts 244°
2026-05-09 12:14 55.56118 38.12750 405 ft 23 kts 268°
2026-05-09 12:15 55.56172 38.12514 405 ft 19 kts 253°
2026-05-09 12:15 55.56086 38.12347 404 ft 7 kts 222°
2026-05-09 12:15 55.56084 38.12344 405 ft 0 kts 222°